Index of /20260507/WXO-DD/model_rdps/10km/00/077
Name Last modified Size Description
Parent Directory -
20260507T00Z_MSC_RDPS_AbsoluteVorticity_IsbL-0250_RLatLon0.09_PT077H.grib2 2026-05-07 03:05 607K
20260507T00Z_MSC_RDPS_AbsoluteVorticity_IsbL-0500_RLatLon0.09_PT077H.grib2 2026-05-07 03:05 565K
20260507T00Z_MSC_RDPS_AbsoluteVorticity_IsbL-0700_RLatLon0.09_PT077H.grib2 2026-05-07 03:05 619K
20260507T00Z_MSC_RDPS_AbsoluteVorticity_IsbL-0850_RLatLon0.09_PT077H.grib2 2026-05-07 03:05 783K
20260507T00Z_MSC_RDPS_AirTemp_AGL-120m_RLatLon0.09_PT077H.grib2 2026-05-07 03:05 371K
20260507T00Z_MSC_RDPS_AirTemp_AGL-2m_RLatLon0.09_PT077H.grib2 2026-05-07 03:05 614K
20260507T00Z_MSC_RDPS_AirTemp_AGL-40m_RLatLon0.09_PT077H.grib2 2026-05-07 03:05 386K
20260507T00Z_MSC_RDPS_AirTemp_AGL-80m_RLatLon0.09_PT077H.grib2 2026-05-07 03:05 377K
20260507T00Z_MSC_RDPS_AirTemp_IsbL-0001_RLatLon0.09_PT077H.grib2 2026-05-07 03:05 228K
20260507T00Z_MSC_RDPS_AirTemp_IsbL-0005_RLatLon0.09_PT077H.grib2 2026-05-07 03:05 377K
20260507T00Z_MSC_RDPS_AirTemp_IsbL-0010_RLatLon0.09_PT077H.grib2 2026-05-07 03:05 298K
20260507T00Z_MSC_RDPS_AirTemp_IsbL-0020_RLatLon0.09_PT077H.grib2 2026-05-07 03:05 314K
20260507T00Z_MSC_RDPS_AirTemp_IsbL-0030_RLatLon0.09_PT077H.grib2 2026-05-07 03:05 331K
20260507T00Z_MSC_RDPS_AirTemp_IsbL-0050_RLatLon0.09_PT077H.grib2 2026-05-07 03:05 307K
20260507T00Z_MSC_RDPS_AirTemp_IsbL-0100_RLatLon0.09_PT077H.grib2 2026-05-07 03:05 428K
20260507T00Z_MSC_RDPS_AirTemp_IsbL-0150_RLatLon0.09_PT077H.grib2 2026-05-07 03:05 413K
20260507T00Z_MSC_RDPS_AirTemp_IsbL-0175_RLatLon0.09_PT077H.grib2 2026-05-07 03:05 406K
20260507T00Z_MSC_RDPS_AirTemp_IsbL-0200_RLatLon0.09_PT077H.grib2 2026-05-07 03:05 409K
20260507T00Z_MSC_RDPS_AirTemp_IsbL-0225_RLatLon0.09_PT077H.grib2 2026-05-07 03:05 411K
20260507T00Z_MSC_RDPS_AirTemp_IsbL-0250_RLatLon0.09_PT077H.grib2 2026-05-07 03:05 423K
20260507T00Z_MSC_RDPS_AirTemp_IsbL-0275_RLatLon0.09_PT077H.grib2 2026-05-07 03:05 403K
20260507T00Z_MSC_RDPS_AirTemp_IsbL-0300_RLatLon0.09_PT077H.grib2 2026-05-07 03:05 433K
20260507T00Z_MSC_RDPS_AirTemp_IsbL-0350_RLatLon0.09_PT077H.grib2 2026-05-07 03:05 421K
20260507T00Z_MSC_RDPS_AirTemp_IsbL-0400_RLatLon0.09_PT077H.grib2 2026-05-07 03:05 425K
20260507T00Z_MSC_RDPS_AirTemp_IsbL-0450_RLatLon0.09_PT077H.grib2 2026-05-07 03:05 435K
20260507T00Z_MSC_RDPS_AirTemp_IsbL-0500_RLatLon0.09_PT077H.grib2 2026-05-07 03:05 446K
20260507T00Z_MSC_RDPS_AirTemp_IsbL-0550_RLatLon0.09_PT077H.grib2 2026-05-07 03:05 463K
20260507T00Z_MSC_RDPS_AirTemp_IsbL-0600_RLatLon0.09_PT077H.grib2 2026-05-07 03:05 480K
20260507T00Z_MSC_RDPS_AirTemp_IsbL-0650_RLatLon0.09_PT077H.grib2 2026-05-07 03:05 495K
20260507T00Z_MSC_RDPS_AirTemp_IsbL-0700_RLatLon0.09_PT077H.grib2 2026-05-07 03:05 521K
20260507T00Z_MSC_RDPS_AirTemp_IsbL-0750_RLatLon0.09_PT077H.grib2 2026-05-07 03:05 522K
20260507T00Z_MSC_RDPS_AirTemp_IsbL-0800_RLatLon0.09_PT077H.grib2 2026-05-07 03:05 458K
20260507T00Z_MSC_RDPS_AirTemp_IsbL-0850_RLatLon0.09_PT077H.grib2 2026-05-07 03:05 504K
20260507T00Z_MSC_RDPS_AirTemp_IsbL-0875_RLatLon0.09_PT077H.grib2 2026-05-07 03:05 518K
20260507T00Z_MSC_RDPS_AirTemp_IsbL-0900_RLatLon0.09_PT077H.grib2 2026-05-07 03:05 523K
20260507T00Z_MSC_RDPS_AirTemp_IsbL-0925_RLatLon0.09_PT077H.grib2 2026-05-07 03:05 521K
20260507T00Z_MSC_RDPS_AirTemp_IsbL-0950_RLatLon0.09_PT077H.grib2 2026-05-07 03:05 521K
20260507T00Z_MSC_RDPS_AirTemp_IsbL-0970_RLatLon0.09_PT077H.grib2 2026-05-07 03:05 515K
20260507T00Z_MSC_RDPS_AirTemp_IsbL-0985_RLatLon0.09_PT077H.grib2 2026-05-07 03:05 501K
20260507T00Z_MSC_RDPS_AirTemp_IsbL-1000_RLatLon0.09_PT077H.grib2 2026-05-07 03:05 484K
20260507T00Z_MSC_RDPS_AirTemp_IsbL-1015_RLatLon0.09_PT077H.grib2 2026-05-07 03:05 488K
20260507T00Z_MSC_RDPS_Albedo_Sfc_RLatLon0.09_PT077H.grib2 2026-05-07 03:05 157K
20260507T00Z_MSC_RDPS_CAPE_Sfc_RLatLon0.09_PT077H.grib2 2026-05-07 03:05 1.7M
20260507T00Z_MSC_RDPS_CIN_Sfc_RLatLon0.09_PT077H.grib2 2026-05-07 03:05 1.2M
20260507T00Z_MSC_RDPS_CloudWater_EAtm_RLatLon0.09_PT077H.grib2 2026-05-07 03:05 225K
20260507T00Z_MSC_RDPS_ConvectivePrecip-Accum_Sfc_RLatLon0.09_PT077H.grib2 2026-05-07 03:05 1.2M
20260507T00Z_MSC_RDPS_DewPointDepression_AGL-2m_RLatLon0.09_PT077H.grib2 2026-05-07 03:05 395K
20260507T00Z_MSC_RDPS_DewPointDepression_IsbL-0001_RLatLon0.09_PT077H.grib2 2026-05-07 03:05 193
20260507T00Z_MSC_RDPS_DewPointDepression_IsbL-0005_RLatLon0.09_PT077H.grib2 2026-05-07 03:05 193
20260507T00Z_MSC_RDPS_DewPointDepression_IsbL-0010_RLatLon0.09_PT077H.grib2 2026-05-07 03:05 193
20260507T00Z_MSC_RDPS_DewPointDepression_IsbL-0020_RLatLon0.09_PT077H.grib2 2026-05-07 03:05 193
20260507T00Z_MSC_RDPS_DewPointDepression_IsbL-0030_RLatLon0.09_PT077H.grib2 2026-05-07 03:05 626
20260507T00Z_MSC_RDPS_DewPointDepression_IsbL-0050_RLatLon0.09_PT077H.grib2 2026-05-07 03:05 78K
20260507T00Z_MSC_RDPS_DewPointDepression_IsbL-0100_RLatLon0.09_PT077H.grib2 2026-05-07 03:05 109K
20260507T00Z_MSC_RDPS_DewPointDepression_IsbL-0150_RLatLon0.09_PT077H.grib2 2026-05-07 03:05 143K
20260507T00Z_MSC_RDPS_DewPointDepression_IsbL-0175_RLatLon0.09_PT077H.grib2 2026-05-07 03:05 171K
20260507T00Z_MSC_RDPS_DewPointDepression_IsbL-0200_RLatLon0.09_PT077H.grib2 2026-05-07 03:05 215K
20260507T00Z_MSC_RDPS_DewPointDepression_IsbL-0225_RLatLon0.09_PT077H.grib2 2026-05-07 03:05 262K
20260507T00Z_MSC_RDPS_DewPointDepression_IsbL-0250_RLatLon0.09_PT077H.grib2 2026-05-07 03:05 303K
20260507T00Z_MSC_RDPS_DewPointDepression_IsbL-0275_RLatLon0.09_PT077H.grib2 2026-05-07 03:05 310K
20260507T00Z_MSC_RDPS_DewPointDepression_IsbL-0300_RLatLon0.09_PT077H.grib2 2026-05-07 03:05 322K
20260507T00Z_MSC_RDPS_DewPointDepression_IsbL-0350_RLatLon0.09_PT077H.grib2 2026-05-07 03:05 327K
20260507T00Z_MSC_RDPS_DewPointDepression_IsbL-0400_RLatLon0.09_PT077H.grib2 2026-05-07 03:05 336K
20260507T00Z_MSC_RDPS_DewPointDepression_IsbL-0450_RLatLon0.09_PT077H.grib2 2026-05-07 03:05 341K
20260507T00Z_MSC_RDPS_DewPointDepression_IsbL-0500_RLatLon0.09_PT077H.grib2 2026-05-07 03:05 347K
20260507T00Z_MSC_RDPS_DewPointDepression_IsbL-0550_RLatLon0.09_PT077H.grib2 2026-05-07 03:05 356K
20260507T00Z_MSC_RDPS_DewPointDepression_IsbL-0600_RLatLon0.09_PT077H.grib2 2026-05-07 03:05 372K
20260507T00Z_MSC_RDPS_DewPointDepression_IsbL-0650_RLatLon0.09_PT077H.grib2 2026-05-07 03:05 383K
20260507T00Z_MSC_RDPS_DewPointDepression_IsbL-0700_RLatLon0.09_PT077H.grib2 2026-05-07 03:05 393K
20260507T00Z_MSC_RDPS_DewPointDepression_IsbL-0750_RLatLon0.09_PT077H.grib2 2026-05-07 03:05 412K
20260507T00Z_MSC_RDPS_DewPointDepression_IsbL-0800_RLatLon0.09_PT077H.grib2 2026-05-07 03:05 449K
20260507T00Z_MSC_RDPS_DewPointDepression_IsbL-0850_RLatLon0.09_PT077H.grib2 2026-05-07 03:05 473K
20260507T00Z_MSC_RDPS_DewPointDepression_IsbL-0875_RLatLon0.09_PT077H.grib2 2026-05-07 03:05 467K
20260507T00Z_MSC_RDPS_DewPointDepression_IsbL-0900_RLatLon0.09_PT077H.grib2 2026-05-07 03:05 454K
20260507T00Z_MSC_RDPS_DewPointDepression_IsbL-0925_RLatLon0.09_PT077H.grib2 2026-05-07 03:05 442K
20260507T00Z_MSC_RDPS_DewPointDepression_IsbL-0950_RLatLon0.09_PT077H.grib2 2026-05-07 03:05 434K
20260507T00Z_MSC_RDPS_DewPointDepression_IsbL-0970_RLatLon0.09_PT077H.grib2 2026-05-07 03:05 428K
20260507T00Z_MSC_RDPS_DewPointDepression_IsbL-0985_RLatLon0.09_PT077H.grib2 2026-05-07 03:05 422K
20260507T00Z_MSC_RDPS_DewPointDepression_IsbL-1000_RLatLon0.09_PT077H.grib2 2026-05-07 03:05 415K
20260507T00Z_MSC_RDPS_DewPointDepression_IsbL-1015_RLatLon0.09_PT077H.grib2 2026-05-07 03:05 405K
20260507T00Z_MSC_RDPS_DewPoint_AGL-2m_RLatLon0.09_PT077H.grib2 2026-05-07 03:05 384K
20260507T00Z_MSC_RDPS_DownwardLongwaveRadiationFlux-Accum_Sfc_RLatLon0.09_PT077H.grib2 2026-05-07 03:05 434K
20260507T00Z_MSC_RDPS_DownwardShortwaveRadiationFlux-Accum_NTAtm_RLatLon0.09_PT077H.grib2 2026-05-07 03:05 154K
20260507T00Z_MSC_RDPS_DownwardShortwaveRadiationFlux-Accum_Sfc_RLatLon0.09_PT077H.grib2 2026-05-07 03:05 635K
20260507T00Z_MSC_RDPS_FreezingRain-Accum1h_Sfc_RLatLon0.09_PT077H.grib2 2026-05-07 03:05 38K
20260507T00Z_MSC_RDPS_FreezingRain-Accum_Sfc_RLatLon0.09_PT077H.grib2 2026-05-07 03:05 197K
20260507T00Z_MSC_RDPS_GeopotentialHeight_IsbL-0001_RLatLon0.09_PT077H.grib2 2026-05-07 03:05 237K
20260507T00Z_MSC_RDPS_GeopotentialHeight_IsbL-0005_RLatLon0.09_PT077H.grib2 2026-05-07 03:05 302K
20260507T00Z_MSC_RDPS_GeopotentialHeight_IsbL-0010_RLatLon0.09_PT077H.grib2 2026-05-07 03:05 304K
20260507T00Z_MSC_RDPS_GeopotentialHeight_IsbL-0020_RLatLon0.09_PT077H.grib2 2026-05-07 03:05 303K
20260507T00Z_MSC_RDPS_GeopotentialHeight_IsbL-0030_RLatLon0.09_PT077H.grib2 2026-05-07 03:05 399K
20260507T00Z_MSC_RDPS_GeopotentialHeight_IsbL-0050_RLatLon0.09_PT077H.grib2 2026-05-07 03:05 306K
20260507T00Z_MSC_RDPS_GeopotentialHeight_IsbL-0100_RLatLon0.09_PT077H.grib2 2026-05-07 03:05 285K
20260507T00Z_MSC_RDPS_GeopotentialHeight_IsbL-0150_RLatLon0.09_PT077H.grib2 2026-05-07 03:05 227K
20260507T00Z_MSC_RDPS_GeopotentialHeight_IsbL-0175_RLatLon0.09_PT077H.grib2 2026-05-07 03:05 229K
20260507T00Z_MSC_RDPS_GeopotentialHeight_IsbL-0200_RLatLon0.09_PT077H.grib2 2026-05-07 03:05 231K
20260507T00Z_MSC_RDPS_GeopotentialHeight_IsbL-0225_RLatLon0.09_PT077H.grib2 2026-05-07 03:05 264K
20260507T00Z_MSC_RDPS_GeopotentialHeight_IsbL-0250_RLatLon0.09_PT077H.grib2 2026-05-07 03:05 266K
20260507T00Z_MSC_RDPS_GeopotentialHeight_IsbL-0275_RLatLon0.09_PT077H.grib2 2026-05-07 03:05 265K
20260507T00Z_MSC_RDPS_GeopotentialHeight_IsbL-0300_RLatLon0.09_PT077H.grib2 2026-05-07 03:05 235K
20260507T00Z_MSC_RDPS_GeopotentialHeight_IsbL-0350_RLatLon0.09_PT077H.grib2 2026-05-07 03:05 230K
20260507T00Z_MSC_RDPS_GeopotentialHeight_IsbL-0400_RLatLon0.09_PT077H.grib2 2026-05-07 03:05 227K
20260507T00Z_MSC_RDPS_GeopotentialHeight_IsbL-0450_RLatLon0.09_PT077H.grib2 2026-05-07 03:05 295K
20260507T00Z_MSC_RDPS_GeopotentialHeight_IsbL-0500_RLatLon0.09_PT077H.grib2 2026-05-07 03:05 290K
20260507T00Z_MSC_RDPS_GeopotentialHeight_IsbL-0550_RLatLon0.09_PT077H.grib2 2026-05-07 03:05 286K
20260507T00Z_MSC_RDPS_GeopotentialHeight_IsbL-0600_RLatLon0.09_PT077H.grib2 2026-05-07 03:05 282K
20260507T00Z_MSC_RDPS_GeopotentialHeight_IsbL-0650_RLatLon0.09_PT077H.grib2 2026-05-07 03:05 253K
20260507T00Z_MSC_RDPS_GeopotentialHeight_IsbL-0700_RLatLon0.09_PT077H.grib2 2026-05-07 03:05 252K
20260507T00Z_MSC_RDPS_GeopotentialHeight_IsbL-0750_RLatLon0.09_PT077H.grib2 2026-05-07 03:05 254K
20260507T00Z_MSC_RDPS_GeopotentialHeight_IsbL-0800_RLatLon0.09_PT077H.grib2 2026-05-07 03:05 346K
20260507T00Z_MSC_RDPS_GeopotentialHeight_IsbL-0850_RLatLon0.09_PT077H.grib2 2026-05-07 03:05 356K
20260507T00Z_MSC_RDPS_GeopotentialHeight_IsbL-0875_RLatLon0.09_PT077H.grib2 2026-05-07 03:05 357K
20260507T00Z_MSC_RDPS_GeopotentialHeight_IsbL-0900_RLatLon0.09_PT077H.grib2 2026-05-07 03:05 362K
20260507T00Z_MSC_RDPS_GeopotentialHeight_IsbL-0925_RLatLon0.09_PT077H.grib2 2026-05-07 03:05 364K
20260507T00Z_MSC_RDPS_GeopotentialHeight_IsbL-0950_RLatLon0.09_PT077H.grib2 2026-05-07 03:05 367K
20260507T00Z_MSC_RDPS_GeopotentialHeight_IsbL-0970_RLatLon0.09_PT077H.grib2 2026-05-07 03:05 374K
20260507T00Z_MSC_RDPS_GeopotentialHeight_IsbL-0985_RLatLon0.09_PT077H.grib2 2026-05-07 03:05 381K
20260507T00Z_MSC_RDPS_GeopotentialHeight_IsbL-1000_RLatLon0.09_PT077H.grib2 2026-05-07 03:05 392K
20260507T00Z_MSC_RDPS_GeopotentialHeight_IsbL-1015_RLatLon0.09_PT077H.grib2 2026-05-07 03:05 407K
20260507T00Z_MSC_RDPS_HighLowPressure_MSL_RLatLon0.09_PT077H.json 2026-05-07 02:57 20K
20260507T00Z_MSC_RDPS_Humidex_Sfc_RLatLon0.09_PT077H.grib2 2026-05-07 03:05 2.4M
20260507T00Z_MSC_RDPS_IcePellets-Accum1h_Sfc_RLatLon0.09_PT077H.grib2 2026-05-07 03:05 7.4K
20260507T00Z_MSC_RDPS_IcePellets-Accum_Sfc_RLatLon0.09_PT077H.grib2 2026-05-07 03:05 29K
20260507T00Z_MSC_RDPS_KIndex_Sfc_RLatLon0.09_PT077H.grib2 2026-05-07 03:05 2.5M
20260507T00Z_MSC_RDPS_LatentHeatNetFlux_Sfc_RLatLon0.09_PT077H.grib2 2026-05-07 03:05 317K
20260507T00Z_MSC_RDPS_LiftedIndex-MU-VT_IsbL-0500_RLatLon0.09_PT077H.grib2 2026-05-07 03:05 2.4M
20260507T00Z_MSC_RDPS_NetLongwaveRadiationFlux-Accum_Sfc_RLatLon0.09_PT077H.grib2 2026-05-07 03:05 483K
20260507T00Z_MSC_RDPS_NetShortwaveRadiationFlux-Accum_Sfc_RLatLon0.09_PT077H.grib2 2026-05-07 03:05 638K
20260507T00Z_MSC_RDPS_PlanetaryBoundaryLayerHeight_Sfc_RLatLon0.09_PT077H.grib2 2026-05-07 03:05 1.1M
20260507T00Z_MSC_RDPS_Precip-Accum1h_Sfc_RLatLon0.09_PT077H.grib2 2026-05-07 03:05 1.2M
20260507T00Z_MSC_RDPS_Precip-Accum_Sfc_RLatLon0.09_PT077H.grib2 2026-05-07 03:05 2.2M
20260507T00Z_MSC_RDPS_PrecipRate_Sfc_RLatLon0.09_PT077H.grib2 2026-05-07 03:05 163K
20260507T00Z_MSC_RDPS_PrecipType-Instant_Sfc_RLatLon0.09_PT077H.grib2 2026-05-07 03:05 578K
20260507T00Z_MSC_RDPS_Pressure-Trend3h_Sfc_RLatLon0.09_PT077H.grib2 2026-05-07 03:05 1.2M
20260507T00Z_MSC_RDPS_Pressure_MSL_RLatLon0.09_PT077H.grib2 2026-05-07 03:05 324K
20260507T00Z_MSC_RDPS_Pressure_PVU-1.5_RLatLon0.09_PT077H.grib2 2026-05-07 03:05 2.3M
20260507T00Z_MSC_RDPS_Pressure_PVU-1_RLatLon0.09_PT077H.grib2 2026-05-07 03:05 2.4M
20260507T00Z_MSC_RDPS_Pressure_PVU-2_RLatLon0.09_PT077H.grib2 2026-05-07 03:05 2.4M
20260507T00Z_MSC_RDPS_Pressure_Sfc_RLatLon0.09_PT077H.grib2 2026-05-07 03:05 497K
20260507T00Z_MSC_RDPS_RadiativeTemp_Sfc_RLatLon0.09_PT077H.grib2 2026-05-07 03:05 303K
20260507T00Z_MSC_RDPS_Rain-Accum1h_Sfc_RLatLon0.09_PT077H.grib2 2026-05-07 03:05 551K
20260507T00Z_MSC_RDPS_Rain-Accum_Sfc_RLatLon0.09_PT077H.grib2 2026-05-07 03:05 1.9M
20260507T00Z_MSC_RDPS_RelativeHumidity_AGL-2m_RLatLon0.09_PT077H.grib2 2026-05-07 03:05 1.0M
20260507T00Z_MSC_RDPS_RelativeHumidity_IsbL-0010_RLatLon0.09_PT077H.grib2 2026-05-07 03:05 576K
20260507T00Z_MSC_RDPS_RelativeHumidity_IsbL-0020_RLatLon0.09_PT077H.grib2 2026-05-07 03:05 629K
20260507T00Z_MSC_RDPS_RelativeHumidity_IsbL-0030_RLatLon0.09_PT077H.grib2 2026-05-07 03:05 627K
20260507T00Z_MSC_RDPS_RelativeHumidity_IsbL-0050_RLatLon0.09_PT077H.grib2 2026-05-07 03:05 351K
20260507T00Z_MSC_RDPS_RelativeHumidity_IsbL-0100_RLatLon0.09_PT077H.grib2 2026-05-07 03:05 277K
20260507T00Z_MSC_RDPS_RelativeHumidity_IsbL-0150_RLatLon0.09_PT077H.grib2 2026-05-07 03:05 410K
20260507T00Z_MSC_RDPS_RelativeHumidity_IsbL-0175_RLatLon0.09_PT077H.grib2 2026-05-07 03:05 468K
20260507T00Z_MSC_RDPS_RelativeHumidity_IsbL-0200_RLatLon0.09_PT077H.grib2 2026-05-07 03:05 540K
20260507T00Z_MSC_RDPS_RelativeHumidity_IsbL-0225_RLatLon0.09_PT077H.grib2 2026-05-07 03:05 616K
20260507T00Z_MSC_RDPS_RelativeHumidity_IsbL-0250_RLatLon0.09_PT077H.grib2 2026-05-07 03:05 693K
20260507T00Z_MSC_RDPS_RelativeHumidity_IsbL-0275_RLatLon0.09_PT077H.grib2 2026-05-07 03:05 720K
20260507T00Z_MSC_RDPS_RelativeHumidity_IsbL-0300_RLatLon0.09_PT077H.grib2 2026-05-07 03:05 757K
20260507T00Z_MSC_RDPS_RelativeHumidity_IsbL-0350_RLatLon0.09_PT077H.grib2 2026-05-07 03:05 773K
20260507T00Z_MSC_RDPS_RelativeHumidity_IsbL-0400_RLatLon0.09_PT077H.grib2 2026-05-07 03:05 789K
20260507T00Z_MSC_RDPS_RelativeHumidity_IsbL-0450_RLatLon0.09_PT077H.grib2 2026-05-07 03:05 797K
20260507T00Z_MSC_RDPS_RelativeHumidity_IsbL-0500_RLatLon0.09_PT077H.grib2 2026-05-07 03:05 801K
20260507T00Z_MSC_RDPS_RelativeHumidity_IsbL-0550_RLatLon0.09_PT077H.grib2 2026-05-07 03:05 815K
20260507T00Z_MSC_RDPS_RelativeHumidity_IsbL-0600_RLatLon0.09_PT077H.grib2 2026-05-07 03:05 838K
20260507T00Z_MSC_RDPS_RelativeHumidity_IsbL-0650_RLatLon0.09_PT077H.grib2 2026-05-07 03:05 852K
20260507T00Z_MSC_RDPS_RelativeHumidity_IsbL-0700_RLatLon0.09_PT077H.grib2 2026-05-07 03:05 885K
20260507T00Z_MSC_RDPS_RelativeHumidity_IsbL-0750_RLatLon0.09_PT077H.grib2 2026-05-07 03:05 927K
20260507T00Z_MSC_RDPS_RelativeHumidity_IsbL-0800_RLatLon0.09_PT077H.grib2 2026-05-07 03:05 1.0M
20260507T00Z_MSC_RDPS_RelativeHumidity_IsbL-0850_RLatLon0.09_PT077H.grib2 2026-05-07 03:05 1.0M
20260507T00Z_MSC_RDPS_RelativeHumidity_IsbL-0875_RLatLon0.09_PT077H.grib2 2026-05-07 03:05 1.0M
20260507T00Z_MSC_RDPS_RelativeHumidity_IsbL-0900_RLatLon0.09_PT077H.grib2 2026-05-07 03:05 1.1M
20260507T00Z_MSC_RDPS_RelativeHumidity_IsbL-0925_RLatLon0.09_PT077H.grib2 2026-05-07 03:05 1.0M
20260507T00Z_MSC_RDPS_RelativeHumidity_IsbL-0950_RLatLon0.09_PT077H.grib2 2026-05-07 03:05 1.0M
20260507T00Z_MSC_RDPS_RelativeHumidity_IsbL-0970_RLatLon0.09_PT077H.grib2 2026-05-07 03:05 1.0M
20260507T00Z_MSC_RDPS_RelativeHumidity_IsbL-0985_RLatLon0.09_PT077H.grib2 2026-05-07 03:05 1.0M
20260507T00Z_MSC_RDPS_RelativeHumidity_IsbL-1000_RLatLon0.09_PT077H.grib2 2026-05-07 03:05 1.0M
20260507T00Z_MSC_RDPS_RelativeHumidity_IsbL-1015_RLatLon0.09_PT077H.grib2 2026-05-07 03:05 1.0M
20260507T00Z_MSC_RDPS_Runoff-Accum_Sfc_RLatLon0.09_PT077H.grib2 2026-05-07 03:05 48K
20260507T00Z_MSC_RDPS_SWEATIndex_Sfc_RLatLon0.09_PT077H.grib2 2026-05-07 03:05 2.4M
20260507T00Z_MSC_RDPS_SeeingIndex_EAtm_RLatLon0.09_PT077H.grib2 2026-05-07 03:05 1.0M
20260507T00Z_MSC_RDPS_SensibleHeatNetFlux_Sfc_RLatLon0.09_PT077H.grib2 2026-05-07 03:05 290K
20260507T00Z_MSC_RDPS_ShowalterIndex_IsbL-0500_RLatLon0.09_PT077H.grib2 2026-05-07 03:05 2.6M
20260507T00Z_MSC_RDPS_SkyTransparencyIndex_EAtm_RLatLon0.09_PT077H.grib2 2026-05-07 03:05 695K
20260507T00Z_MSC_RDPS_Snow-Accum1h_Sfc_RLatLon0.09_PT077H.grib2 2026-05-07 03:05 345K
20260507T00Z_MSC_RDPS_Snow-Accum_Sfc_RLatLon0.09_PT077H.grib2 2026-05-07 03:05 747K
20260507T00Z_MSC_RDPS_SnowDensity_Sfc_RLatLon0.09_PT077H.grib2 2026-05-07 03:05 173K
20260507T00Z_MSC_RDPS_SnowDepth_Sfc_RLatLon0.09_PT077H.grib2 2026-05-07 03:05 624K
20260507T00Z_MSC_RDPS_SoilTemp_DBS-0to10cm_RLatLon0.09_PT077H.grib2 2026-05-07 03:05 245K
20260507T00Z_MSC_RDPS_SoilTemp_Sfc_RLatLon0.09_PT077H.grib2 2026-05-07 03:05 266K
20260507T00Z_MSC_RDPS_SoilVolumetricIceContent_Sfc_RLatLon0.09_PT077H.grib2 2026-05-07 03:05 143K
20260507T00Z_MSC_RDPS_SoilVolumetricWaterContent_DBS-0to10cm_RLatLon0.09_PT077H.grib2 2026-05-07 03:05 292K
20260507T00Z_MSC_RDPS_SoilVolumetricWaterContent_DBS-0to1cm_RLatLon0.09_PT077H.grib2 2026-05-07 03:05 342K
20260507T00Z_MSC_RDPS_SpecificHumidity_AGL-120m_RLatLon0.09_PT077H.grib2 2026-05-07 03:05 490K
20260507T00Z_MSC_RDPS_SpecificHumidity_AGL-2m_RLatLon0.09_PT077H.grib2 2026-05-07 03:05 659K
20260507T00Z_MSC_RDPS_SpecificHumidity_AGL-40m_RLatLon0.09_PT077H.grib2 2026-05-07 03:05 496K
20260507T00Z_MSC_RDPS_SpecificHumidity_AGL-80m_RLatLon0.09_PT077H.grib2 2026-05-07 03:05 491K
20260507T00Z_MSC_RDPS_SpecificHumidity_IsbL-0001_RLatLon0.09_PT077H.grib2 2026-05-07 03:05 356K
20260507T00Z_MSC_RDPS_SpecificHumidity_IsbL-0005_RLatLon0.09_PT077H.grib2 2026-05-07 03:05 365K
20260507T00Z_MSC_RDPS_SpecificHumidity_IsbL-0010_RLatLon0.09_PT077H.grib2 2026-05-07 03:05 391K
20260507T00Z_MSC_RDPS_SpecificHumidity_IsbL-0020_RLatLon0.09_PT077H.grib2 2026-05-07 03:05 482K
20260507T00Z_MSC_RDPS_SpecificHumidity_IsbL-0030_RLatLon0.09_PT077H.grib2 2026-05-07 03:05 365K
20260507T00Z_MSC_RDPS_SpecificHumidity_IsbL-0050_RLatLon0.09_PT077H.grib2 2026-05-07 03:05 470K
20260507T00Z_MSC_RDPS_SpecificHumidity_IsbL-0100_RLatLon0.09_PT077H.grib2 2026-05-07 03:05 405K
20260507T00Z_MSC_RDPS_SpecificHumidity_IsbL-0150_RLatLon0.09_PT077H.grib2 2026-05-07 03:05 451K
20260507T00Z_MSC_RDPS_SpecificHumidity_IsbL-0175_RLatLon0.09_PT077H.grib2 2026-05-07 03:05 431K
20260507T00Z_MSC_RDPS_SpecificHumidity_IsbL-0200_RLatLon0.09_PT077H.grib2 2026-05-07 03:05 467K
20260507T00Z_MSC_RDPS_SpecificHumidity_IsbL-0225_RLatLon0.09_PT077H.grib2 2026-05-07 03:05 458K
20260507T00Z_MSC_RDPS_SpecificHumidity_IsbL-0250_RLatLon0.09_PT077H.grib2 2026-05-07 03:05 523K
20260507T00Z_MSC_RDPS_SpecificHumidity_IsbL-0275_RLatLon0.09_PT077H.grib2 2026-05-07 03:05 482K
20260507T00Z_MSC_RDPS_SpecificHumidity_IsbL-0300_RLatLon0.09_PT077H.grib2 2026-05-07 03:05 451K
20260507T00Z_MSC_RDPS_SpecificHumidity_IsbL-0350_RLatLon0.09_PT077H.grib2 2026-05-07 03:05 445K
20260507T00Z_MSC_RDPS_SpecificHumidity_IsbL-0400_RLatLon0.09_PT077H.grib2 2026-05-07 03:05 529K
20260507T00Z_MSC_RDPS_SpecificHumidity_IsbL-0450_RLatLon0.09_PT077H.grib2 2026-05-07 03:05 581K
20260507T00Z_MSC_RDPS_SpecificHumidity_IsbL-0500_RLatLon0.09_PT077H.grib2 2026-05-07 03:05 518K
20260507T00Z_MSC_RDPS_SpecificHumidity_IsbL-0550_RLatLon0.09_PT077H.grib2 2026-05-07 03:05 587K
20260507T00Z_MSC_RDPS_SpecificHumidity_IsbL-0600_RLatLon0.09_PT077H.grib2 2026-05-07 03:05 643K
20260507T00Z_MSC_RDPS_SpecificHumidity_IsbL-0650_RLatLon0.09_PT077H.grib2 2026-05-07 03:05 563K
20260507T00Z_MSC_RDPS_SpecificHumidity_IsbL-0700_RLatLon0.09_PT077H.grib2 2026-05-07 03:05 609K
20260507T00Z_MSC_RDPS_SpecificHumidity_IsbL-0750_RLatLon0.09_PT077H.grib2 2026-05-07 03:05 667K
20260507T00Z_MSC_RDPS_SpecificHumidity_IsbL-0800_RLatLon0.09_PT077H.grib2 2026-05-07 03:05 755K
20260507T00Z_MSC_RDPS_SpecificHumidity_IsbL-0850_RLatLon0.09_PT077H.grib2 2026-05-07 03:05 821K
20260507T00Z_MSC_RDPS_SpecificHumidity_IsbL-0875_RLatLon0.09_PT077H.grib2 2026-05-07 03:05 837K
20260507T00Z_MSC_RDPS_SpecificHumidity_IsbL-0900_RLatLon0.09_PT077H.grib2 2026-05-07 03:05 846K
20260507T00Z_MSC_RDPS_SpecificHumidity_IsbL-0925_RLatLon0.09_PT077H.grib2 2026-05-07 03:05 847K
20260507T00Z_MSC_RDPS_SpecificHumidity_IsbL-0950_RLatLon0.09_PT077H.grib2 2026-05-07 03:05 705K
20260507T00Z_MSC_RDPS_SpecificHumidity_IsbL-0970_RLatLon0.09_PT077H.grib2 2026-05-07 03:05 698K
20260507T00Z_MSC_RDPS_SpecificHumidity_IsbL-0985_RLatLon0.09_PT077H.grib2 2026-05-07 03:05 690K
20260507T00Z_MSC_RDPS_SpecificHumidity_IsbL-1000_RLatLon0.09_PT077H.grib2 2026-05-07 03:05 682K
20260507T00Z_MSC_RDPS_SpecificHumidity_IsbL-1015_RLatLon0.09_PT077H.grib2 2026-05-07 03:05 673K
20260507T00Z_MSC_RDPS_SpecificHumidity_Sfc_RLatLon0.09_PT077H.grib2 2026-05-07 03:05 320K
20260507T00Z_MSC_RDPS_StormRelativeHelicity_EtaL-10000_RLatLon0.09_PT077H.grib2 2026-05-07 03:05 1.1M
20260507T00Z_MSC_RDPS_StormSeverityIndex_EtaL-10000_RLatLon0.09_PT077H.grib2 2026-05-07 03:05 1.2M
20260507T00Z_MSC_RDPS_Thickness_IsbL-0850to0700_RLatLon0.09_PT077H.grib2 2026-05-07 03:05 249K
20260507T00Z_MSC_RDPS_Thickness_IsbL-1000to0500_RLatLon0.09_PT077H.grib2 2026-05-07 03:05 196K
20260507T00Z_MSC_RDPS_Thickness_IsbL-1000to0850_RLatLon0.09_PT077H.grib2 2026-05-07 03:05 260K
20260507T00Z_MSC_RDPS_TotalCloudCover_Sfc_RLatLon0.09_PT077H.grib2 2026-05-07 03:05 666K
20260507T00Z_MSC_RDPS_TotalTotalsIndex_Sfc_RLatLon0.09_PT077H.grib2 2026-05-07 03:05 2.5M
20260507T00Z_MSC_RDPS_UVIndex-ClearSky_Sfc_RLatLon0.09_PT077H.grib2 2026-05-07 03:05 112K
20260507T00Z_MSC_RDPS_UVIndex_Sfc_RLatLon0.09_PT077H.grib2 2026-05-07 03:05 194K
20260507T00Z_MSC_RDPS_UpwardLongwaveRadiationFlux_NTAtm_RLatLon0.09_PT077H.grib2 2026-05-07 03:05 489K
20260507T00Z_MSC_RDPS_UpwardShortwaveRadiationFlux_NTAtm_RLatLon0.09_PT077H.grib2 2026-05-07 03:05 158K
20260507T00Z_MSC_RDPS_VerticalVelocity_IsbL-0250_RLatLon0.09_PT077H.grib2 2026-05-07 03:05 444K
20260507T00Z_MSC_RDPS_VerticalVelocity_IsbL-0500_RLatLon0.09_PT077H.grib2 2026-05-07 03:05 540K
20260507T00Z_MSC_RDPS_VerticalVelocity_IsbL-0700_RLatLon0.09_PT077H.grib2 2026-05-07 03:05 594K
20260507T00Z_MSC_RDPS_VerticalVelocity_IsbL-0850_RLatLon0.09_PT077H.grib2 2026-05-07 03:05 696K
20260507T00Z_MSC_RDPS_VerticalWindShear_EtaL-6500_RLatLon0.09_PT077H.grib2 2026-05-07 03:05 1.2M
20260507T00Z_MSC_RDPS_WindChill_Sfc_RLatLon0.09_PT077H.grib2 2026-05-07 03:05 1.2M
20260507T00Z_MSC_RDPS_WindDir_AGL-10m_RLatLon0.09_PT077H.grib2 2026-05-07 03:05 957K
20260507T00Z_MSC_RDPS_WindDir_AGL-120m_RLatLon0.09_PT077H.grib2 2026-05-07 03:05 592K
20260507T00Z_MSC_RDPS_WindDir_AGL-40m_RLatLon0.09_PT077H.grib2 2026-05-07 03:05 626K
20260507T00Z_MSC_RDPS_WindDir_AGL-80m_RLatLon0.09_PT077H.grib2 2026-05-07 03:05 605K
20260507T00Z_MSC_RDPS_WindDir_IsbL-0001_RLatLon0.09_PT077H.grib2 2026-05-07 03:05 296K
20260507T00Z_MSC_RDPS_WindDir_IsbL-0005_RLatLon0.09_PT077H.grib2 2026-05-07 03:05 370K
20260507T00Z_MSC_RDPS_WindDir_IsbL-0010_RLatLon0.09_PT077H.grib2 2026-05-07 03:05 385K
20260507T00Z_MSC_RDPS_WindDir_IsbL-0020_RLatLon0.09_PT077H.grib2 2026-05-07 03:05 424K
20260507T00Z_MSC_RDPS_WindDir_IsbL-0030_RLatLon0.09_PT077H.grib2 2026-05-07 03:05 421K
20260507T00Z_MSC_RDPS_WindDir_IsbL-0050_RLatLon0.09_PT077H.grib2 2026-05-07 03:05 433K
20260507T00Z_MSC_RDPS_WindDir_IsbL-0100_RLatLon0.09_PT077H.grib2 2026-05-07 03:05 418K
20260507T00Z_MSC_RDPS_WindDir_IsbL-0150_RLatLon0.09_PT077H.grib2 2026-05-07 03:05 415K
20260507T00Z_MSC_RDPS_WindDir_IsbL-0175_RLatLon0.09_PT077H.grib2 2026-05-07 03:05 438K
20260507T00Z_MSC_RDPS_WindDir_IsbL-0200_RLatLon0.09_PT077H.grib2 2026-05-07 03:05 453K
20260507T00Z_MSC_RDPS_WindDir_IsbL-0225_RLatLon0.09_PT077H.grib2 2026-05-07 03:05 461K
20260507T00Z_MSC_RDPS_WindDir_IsbL-0250_RLatLon0.09_PT077H.grib2 2026-05-07 03:05 465K
20260507T00Z_MSC_RDPS_WindDir_IsbL-0275_RLatLon0.09_PT077H.grib2 2026-05-07 03:05 484K
20260507T00Z_MSC_RDPS_WindDir_IsbL-0300_RLatLon0.09_PT077H.grib2 2026-05-07 03:05 476K
20260507T00Z_MSC_RDPS_WindDir_IsbL-0350_RLatLon0.09_PT077H.grib2 2026-05-07 03:05 502K
20260507T00Z_MSC_RDPS_WindDir_IsbL-0400_RLatLon0.09_PT077H.grib2 2026-05-07 03:05 526K
20260507T00Z_MSC_RDPS_WindDir_IsbL-0450_RLatLon0.09_PT077H.grib2 2026-05-07 03:05 551K
20260507T00Z_MSC_RDPS_WindDir_IsbL-0500_RLatLon0.09_PT077H.grib2 2026-05-07 03:05 568K
20260507T00Z_MSC_RDPS_WindDir_IsbL-0550_RLatLon0.09_PT077H.grib2 2026-05-07 03:05 573K
20260507T00Z_MSC_RDPS_WindDir_IsbL-0600_RLatLon0.09_PT077H.grib2 2026-05-07 03:05 598K
20260507T00Z_MSC_RDPS_WindDir_IsbL-0650_RLatLon0.09_PT077H.grib2 2026-05-07 03:05 635K
20260507T00Z_MSC_RDPS_WindDir_IsbL-0700_RLatLon0.09_PT077H.grib2 2026-05-07 03:05 681K
20260507T00Z_MSC_RDPS_WindDir_IsbL-0750_RLatLon0.09_PT077H.grib2 2026-05-07 03:05 727K
20260507T00Z_MSC_RDPS_WindDir_IsbL-0800_RLatLon0.09_PT077H.grib2 2026-05-07 03:05 793K
20260507T00Z_MSC_RDPS_WindDir_IsbL-0850_RLatLon0.09_PT077H.grib2 2026-05-07 03:05 857K
20260507T00Z_MSC_RDPS_WindDir_IsbL-0875_RLatLon0.09_PT077H.grib2 2026-05-07 03:05 876K
20260507T00Z_MSC_RDPS_WindDir_IsbL-0900_RLatLon0.09_PT077H.grib2 2026-05-07 03:05 888K
20260507T00Z_MSC_RDPS_WindDir_IsbL-0925_RLatLon0.09_PT077H.grib2 2026-05-07 03:05 899K
20260507T00Z_MSC_RDPS_WindDir_IsbL-0950_RLatLon0.09_PT077H.grib2 2026-05-07 03:05 904K
20260507T00Z_MSC_RDPS_WindDir_IsbL-0970_RLatLon0.09_PT077H.grib2 2026-05-07 03:05 906K
20260507T00Z_MSC_RDPS_WindDir_IsbL-0985_RLatLon0.09_PT077H.grib2 2026-05-07 03:05 915K
20260507T00Z_MSC_RDPS_WindDir_IsbL-1000_RLatLon0.09_PT077H.grib2 2026-05-07 03:05 932K
20260507T00Z_MSC_RDPS_WindDir_IsbL-1015_RLatLon0.09_PT077H.grib2 2026-05-07 03:05 949K
20260507T00Z_MSC_RDPS_WindGust-Max_AGL-10m_RLatLon0.09_PT077H.grib2 2026-05-07 03:05 1.0M
20260507T00Z_MSC_RDPS_WindGust-Min_AGL-10m_RLatLon0.09_PT077H.grib2 2026-05-07 03:05 1.0M
20260507T00Z_MSC_RDPS_WindGust_AGL-10m_RLatLon0.09_PT077H.grib2 2026-05-07 03:05 1.0M
20260507T00Z_MSC_RDPS_WindSpeed_AGL-10m_RLatLon0.09_PT077H.grib2 2026-05-07 03:05 840K
20260507T00Z_MSC_RDPS_WindSpeed_AGL-120m_RLatLon0.09_PT077H.grib2 2026-05-07 03:05 541K
20260507T00Z_MSC_RDPS_WindSpeed_AGL-40m_RLatLon0.09_PT077H.grib2 2026-05-07 03:05 673K
20260507T00Z_MSC_RDPS_WindSpeed_AGL-80m_RLatLon0.09_PT077H.grib2 2026-05-07 03:05 542K
20260507T00Z_MSC_RDPS_WindSpeed_IsbL-0001_RLatLon0.09_PT077H.grib2 2026-05-07 03:05 252K
20260507T00Z_MSC_RDPS_WindSpeed_IsbL-0005_RLatLon0.09_PT077H.grib2 2026-05-07 03:05 383K
20260507T00Z_MSC_RDPS_WindSpeed_IsbL-0010_RLatLon0.09_PT077H.grib2 2026-05-07 03:05 396K
20260507T00Z_MSC_RDPS_WindSpeed_IsbL-0020_RLatLon0.09_PT077H.grib2 2026-05-07 03:05 322K
20260507T00Z_MSC_RDPS_WindSpeed_IsbL-0030_RLatLon0.09_PT077H.grib2 2026-05-07 03:05 317K
20260507T00Z_MSC_RDPS_WindSpeed_IsbL-0050_RLatLon0.09_PT077H.grib2 2026-05-07 03:05 445K
20260507T00Z_MSC_RDPS_WindSpeed_IsbL-0100_RLatLon0.09_PT077H.grib2 2026-05-07 03:05 474K
20260507T00Z_MSC_RDPS_WindSpeed_IsbL-0150_RLatLon0.09_PT077H.grib2 2026-05-07 03:05 376K
20260507T00Z_MSC_RDPS_WindSpeed_IsbL-0175_RLatLon0.09_PT077H.grib2 2026-05-07 03:05 402K
20260507T00Z_MSC_RDPS_WindSpeed_IsbL-0200_RLatLon0.09_PT077H.grib2 2026-05-07 03:05 436K
20260507T00Z_MSC_RDPS_WindSpeed_IsbL-0225_RLatLon0.09_PT077H.grib2 2026-05-07 03:05 444K
20260507T00Z_MSC_RDPS_WindSpeed_IsbL-0250_RLatLon0.09_PT077H.grib2 2026-05-07 03:05 449K
20260507T00Z_MSC_RDPS_WindSpeed_IsbL-0275_RLatLon0.09_PT077H.grib2 2026-05-07 03:05 468K
20260507T00Z_MSC_RDPS_WindSpeed_IsbL-0300_RLatLon0.09_PT077H.grib2 2026-05-07 03:05 463K
20260507T00Z_MSC_RDPS_WindSpeed_IsbL-0350_RLatLon0.09_PT077H.grib2 2026-05-07 03:05 473K
20260507T00Z_MSC_RDPS_WindSpeed_IsbL-0400_RLatLon0.09_PT077H.grib2 2026-05-07 03:05 479K
20260507T00Z_MSC_RDPS_WindSpeed_IsbL-0450_RLatLon0.09_PT077H.grib2 2026-05-07 03:05 464K
20260507T00Z_MSC_RDPS_WindSpeed_IsbL-0500_RLatLon0.09_PT077H.grib2 2026-05-07 03:05 465K
20260507T00Z_MSC_RDPS_WindSpeed_IsbL-0550_RLatLon0.09_PT077H.grib2 2026-05-07 03:05 465K
20260507T00Z_MSC_RDPS_WindSpeed_IsbL-0600_RLatLon0.09_PT077H.grib2 2026-05-07 03:05 473K
20260507T00Z_MSC_RDPS_WindSpeed_IsbL-0650_RLatLon0.09_PT077H.grib2 2026-05-07 03:05 612K
20260507T00Z_MSC_RDPS_WindSpeed_IsbL-0700_RLatLon0.09_PT077H.grib2 2026-05-07 03:05 637K
20260507T00Z_MSC_RDPS_WindSpeed_IsbL-0750_RLatLon0.09_PT077H.grib2 2026-05-07 03:05 669K
20260507T00Z_MSC_RDPS_WindSpeed_IsbL-0800_RLatLon0.09_PT077H.grib2 2026-05-07 03:05 763K
20260507T00Z_MSC_RDPS_WindSpeed_IsbL-0850_RLatLon0.09_PT077H.grib2 2026-05-07 03:05 818K
20260507T00Z_MSC_RDPS_WindSpeed_IsbL-0875_RLatLon0.09_PT077H.grib2 2026-05-07 03:05 835K
20260507T00Z_MSC_RDPS_WindSpeed_IsbL-0900_RLatLon0.09_PT077H.grib2 2026-05-07 03:05 851K
20260507T00Z_MSC_RDPS_WindSpeed_IsbL-0925_RLatLon0.09_PT077H.grib2 2026-05-07 03:05 864K
20260507T00Z_MSC_RDPS_WindSpeed_IsbL-0950_RLatLon0.09_PT077H.grib2 2026-05-07 03:05 863K
20260507T00Z_MSC_RDPS_WindSpeed_IsbL-0970_RLatLon0.09_PT077H.grib2 2026-05-07 03:05 862K
20260507T00Z_MSC_RDPS_WindSpeed_IsbL-0985_RLatLon0.09_PT077H.grib2 2026-05-07 03:05 857K
20260507T00Z_MSC_RDPS_WindSpeed_IsbL-1000_RLatLon0.09_PT077H.grib2 2026-05-07 03:05 850K
20260507T00Z_MSC_RDPS_WindSpeed_IsbL-1015_RLatLon0.09_PT077H.grib2 2026-05-07 03:05 841K
20260507T00Z_MSC_RDPS_WindU_AGL-10m_RLatLon0.09_PT077H.grib2 2026-05-07 03:05 431K
20260507T00Z_MSC_RDPS_WindU_AGL-120m_RLatLon0.09_PT077H.grib2 2026-05-07 03:05 534K
20260507T00Z_MSC_RDPS_WindU_AGL-40m_RLatLon0.09_PT077H.grib2 2026-05-07 03:05 538K
20260507T00Z_MSC_RDPS_WindU_AGL-80m_RLatLon0.09_PT077H.grib2 2026-05-07 03:05 536K
20260507T00Z_MSC_RDPS_WindU_IsbL-0001_RLatLon0.09_PT077H.grib2 2026-05-07 03:05 292K
20260507T00Z_MSC_RDPS_WindU_IsbL-0005_RLatLon0.09_PT077H.grib2 2026-05-07 03:05 287K
20260507T00Z_MSC_RDPS_WindU_IsbL-0010_RLatLon0.09_PT077H.grib2 2026-05-07 03:05 297K
20260507T00Z_MSC_RDPS_WindU_IsbL-0020_RLatLon0.09_PT077H.grib2 2026-05-07 03:05 313K
20260507T00Z_MSC_RDPS_WindU_IsbL-0030_RLatLon0.09_PT077H.grib2 2026-05-07 03:05 310K
20260507T00Z_MSC_RDPS_WindU_IsbL-0050_RLatLon0.09_PT077H.grib2 2026-05-07 03:05 338K
20260507T00Z_MSC_RDPS_WindU_IsbL-0100_RLatLon0.09_PT077H.grib2 2026-05-07 03:05 431K
20260507T00Z_MSC_RDPS_WindU_IsbL-0150_RLatLon0.09_PT077H.grib2 2026-05-07 03:05 368K
20260507T00Z_MSC_RDPS_WindU_IsbL-0175_RLatLon0.09_PT077H.grib2 2026-05-07 03:05 415K
20260507T00Z_MSC_RDPS_WindU_IsbL-0200_RLatLon0.09_PT077H.grib2 2026-05-07 03:05 429K
20260507T00Z_MSC_RDPS_WindU_IsbL-0225_RLatLon0.09_PT077H.grib2 2026-05-07 03:05 435K
20260507T00Z_MSC_RDPS_WindU_IsbL-0250_RLatLon0.09_PT077H.grib2 2026-05-07 03:05 339K
20260507T00Z_MSC_RDPS_WindU_IsbL-0275_RLatLon0.09_PT077H.grib2 2026-05-07 03:05 355K
20260507T00Z_MSC_RDPS_WindU_IsbL-0300_RLatLon0.09_PT077H.grib2 2026-05-07 03:05 350K
20260507T00Z_MSC_RDPS_WindU_IsbL-0350_RLatLon0.09_PT077H.grib2 2026-05-07 03:05 461K
20260507T00Z_MSC_RDPS_WindU_IsbL-0400_RLatLon0.09_PT077H.grib2 2026-05-07 03:05 467K
20260507T00Z_MSC_RDPS_WindU_IsbL-0450_RLatLon0.09_PT077H.grib2 2026-05-07 03:05 469K
20260507T00Z_MSC_RDPS_WindU_IsbL-0500_RLatLon0.09_PT077H.grib2 2026-05-07 03:05 471K
20260507T00Z_MSC_RDPS_WindU_IsbL-0550_RLatLon0.09_PT077H.grib2 2026-05-07 03:05 472K
20260507T00Z_MSC_RDPS_WindU_IsbL-0600_RLatLon0.09_PT077H.grib2 2026-05-07 03:05 481K
20260507T00Z_MSC_RDPS_WindU_IsbL-0650_RLatLon0.09_PT077H.grib2 2026-05-07 03:05 483K
20260507T00Z_MSC_RDPS_WindU_IsbL-0700_RLatLon0.09_PT077H.grib2 2026-05-07 03:05 506K
20260507T00Z_MSC_RDPS_WindU_IsbL-0750_RLatLon0.09_PT077H.grib2 2026-05-07 03:05 534K
20260507T00Z_MSC_RDPS_WindU_IsbL-0800_RLatLon0.09_PT077H.grib2 2026-05-07 03:05 577K
20260507T00Z_MSC_RDPS_WindU_IsbL-0850_RLatLon0.09_PT077H.grib2 2026-05-07 03:05 625K
20260507T00Z_MSC_RDPS_WindU_IsbL-0875_RLatLon0.09_PT077H.grib2 2026-05-07 03:05 640K
20260507T00Z_MSC_RDPS_WindU_IsbL-0900_RLatLon0.09_PT077H.grib2 2026-05-07 03:05 652K
20260507T00Z_MSC_RDPS_WindU_IsbL-0925_RLatLon0.09_PT077H.grib2 2026-05-07 03:05 660K
20260507T00Z_MSC_RDPS_WindU_IsbL-0950_RLatLon0.09_PT077H.grib2 2026-05-07 03:05 658K
20260507T00Z_MSC_RDPS_WindU_IsbL-0970_RLatLon0.09_PT077H.grib2 2026-05-07 03:05 795K
20260507T00Z_MSC_RDPS_WindU_IsbL-0985_RLatLon0.09_PT077H.grib2 2026-05-07 03:05 788K
20260507T00Z_MSC_RDPS_WindU_IsbL-1000_RLatLon0.09_PT077H.grib2 2026-05-07 03:05 829K
20260507T00Z_MSC_RDPS_WindU_IsbL-1015_RLatLon0.09_PT077H.grib2 2026-05-07 03:05 822K
20260507T00Z_MSC_RDPS_WindV_AGL-10m_RLatLon0.09_PT077H.grib2 2026-05-07 03:05 431K
20260507T00Z_MSC_RDPS_WindV_AGL-120m_RLatLon0.09_PT077H.grib2 2026-05-07 03:05 535K
20260507T00Z_MSC_RDPS_WindV_AGL-40m_RLatLon0.09_PT077H.grib2 2026-05-07 03:05 538K
20260507T00Z_MSC_RDPS_WindV_AGL-80m_RLatLon0.09_PT077H.grib2 2026-05-07 03:05 536K
20260507T00Z_MSC_RDPS_WindV_IsbL-0001_RLatLon0.09_PT077H.grib2 2026-05-07 03:05 245K
20260507T00Z_MSC_RDPS_WindV_IsbL-0005_RLatLon0.09_PT077H.grib2 2026-05-07 03:05 286K
20260507T00Z_MSC_RDPS_WindV_IsbL-0010_RLatLon0.09_PT077H.grib2 2026-05-07 03:05 298K
20260507T00Z_MSC_RDPS_WindV_IsbL-0020_RLatLon0.09_PT077H.grib2 2026-05-07 03:05 313K
20260507T00Z_MSC_RDPS_WindV_IsbL-0030_RLatLon0.09_PT077H.grib2 2026-05-07 03:05 310K
20260507T00Z_MSC_RDPS_WindV_IsbL-0050_RLatLon0.09_PT077H.grib2 2026-05-07 03:05 336K
20260507T00Z_MSC_RDPS_WindV_IsbL-0100_RLatLon0.09_PT077H.grib2 2026-05-07 03:05 426K
20260507T00Z_MSC_RDPS_WindV_IsbL-0150_RLatLon0.09_PT077H.grib2 2026-05-07 03:05 391K
20260507T00Z_MSC_RDPS_WindV_IsbL-0175_RLatLon0.09_PT077H.grib2 2026-05-07 03:05 415K
20260507T00Z_MSC_RDPS_WindV_IsbL-0200_RLatLon0.09_PT077H.grib2 2026-05-07 03:05 331K
20260507T00Z_MSC_RDPS_WindV_IsbL-0225_RLatLon0.09_PT077H.grib2 2026-05-07 03:05 336K
20260507T00Z_MSC_RDPS_WindV_IsbL-0250_RLatLon0.09_PT077H.grib2 2026-05-07 03:05 365K
20260507T00Z_MSC_RDPS_WindV_IsbL-0275_RLatLon0.09_PT077H.grib2 2026-05-07 03:05 378K
20260507T00Z_MSC_RDPS_WindV_IsbL-0300_RLatLon0.09_PT077H.grib2 2026-05-07 03:05 374K
20260507T00Z_MSC_RDPS_WindV_IsbL-0350_RLatLon0.09_PT077H.grib2 2026-05-07 03:05 357K
20260507T00Z_MSC_RDPS_WindV_IsbL-0400_RLatLon0.09_PT077H.grib2 2026-05-07 03:05 362K
20260507T00Z_MSC_RDPS_WindV_IsbL-0450_RLatLon0.09_PT077H.grib2 2026-05-07 03:05 365K
20260507T00Z_MSC_RDPS_WindV_IsbL-0500_RLatLon0.09_PT077H.grib2 2026-05-07 03:05 468K
20260507T00Z_MSC_RDPS_WindV_IsbL-0550_RLatLon0.09_PT077H.grib2 2026-05-07 03:05 469K
20260507T00Z_MSC_RDPS_WindV_IsbL-0600_RLatLon0.09_PT077H.grib2 2026-05-07 03:05 478K
20260507T00Z_MSC_RDPS_WindV_IsbL-0650_RLatLon0.09_PT077H.grib2 2026-05-07 03:05 494K
20260507T00Z_MSC_RDPS_WindV_IsbL-0700_RLatLon0.09_PT077H.grib2 2026-05-07 03:05 515K
20260507T00Z_MSC_RDPS_WindV_IsbL-0750_RLatLon0.09_PT077H.grib2 2026-05-07 03:05 543K
20260507T00Z_MSC_RDPS_WindV_IsbL-0800_RLatLon0.09_PT077H.grib2 2026-05-07 03:05 573K
20260507T00Z_MSC_RDPS_WindV_IsbL-0850_RLatLon0.09_PT077H.grib2 2026-05-07 03:05 622K
20260507T00Z_MSC_RDPS_WindV_IsbL-0875_RLatLon0.09_PT077H.grib2 2026-05-07 03:05 637K
20260507T00Z_MSC_RDPS_WindV_IsbL-0900_RLatLon0.09_PT077H.grib2 2026-05-07 03:05 649K
20260507T00Z_MSC_RDPS_WindV_IsbL-0925_RLatLon0.09_PT077H.grib2 2026-05-07 03:05 658K
20260507T00Z_MSC_RDPS_WindV_IsbL-0950_RLatLon0.09_PT077H.grib2 2026-05-07 03:05 658K
20260507T00Z_MSC_RDPS_WindV_IsbL-0970_RLatLon0.09_PT077H.grib2 2026-05-07 03:05 794K
20260507T00Z_MSC_RDPS_WindV_IsbL-0985_RLatLon0.09_PT077H.grib2 2026-05-07 03:05 789K
20260507T00Z_MSC_RDPS_WindV_IsbL-1000_RLatLon0.09_PT077H.grib2 2026-05-07 03:05 783K
20260507T00Z_MSC_RDPS_WindV_IsbL-1015_RLatLon0.09_PT077H.grib2 2026-05-07 03:05 823K